Temp
-9 -9 -9 -9 -9 -9 -9 -9 -9 -8 -8 -9 -9 -9 -9 -9 -9 -9 -9 -9 -9 -9 -9 -9 -9 -9 -9 -9 -9 -9 -9 -9 -9
-9 -9 -9 -9 -9 -9 -9 -9 -9 -9 -9 -9 -9 -9 -10 -9 -9 -9 -9 -9 -9 -9 -9 -9 -9 -9 -9 -9 -9 -9 -9 -9 -9
-9 -9 -10 -10 -10 -9 -9 -9 -9 -9 -9 -9 -9 -10 -10 -10 -10 -10 -10 -9 -9 -10 -10 -10 -9 -9 -9 -9 -9 -9 -9 -9 -9
-9 -9 -10 -10 -10 -10 -10 -9 -9 -10 -9 -10 -10 -10 -10 -10 -10 -10 -10 -10 -10 -10 -10 -10 -10 -9 -10 -10 -10 -9 -9 -9 -9
-9 -9 -9 -10 -10 -10 -10 -10 -10 -10 -10 -10 -10 -10 -10 -10 -10 -10 -10 -10 -10 -10 -10 -10 -10 -10 -10 -10 -10 -10 -10 -9 -9
-9 -9 -9 -10 -10 -10 -10 -10 -10 -10 -10 -10 -10 -10 -10 -10 -10 -10 -10 -10 -10 -10 -10 -10 -10 -10 -10 -10 -10 -10 -10 -10 -10
-9 -9 -9 -10 -10 -10 -10 -10 -10 -10 -10 -10 -10 -10 -10 -10 -10 -10 -10 -10 -10 -10 -10 -10 -10 -10 -10 -10 -10 -10 -10 -10 -10
-9 -9 -9 -9 -10 -10 -10 -10 -10 -11 -10 -10 -10 -10 -10 -10 -10 -10 -10 -10 -10 -10 -10 -10 -10 -10 -10 -10 -10 -10 -10 -10 -10
-10 -10 -9 -9 -10 -10 -10 -11 -10 -10 -10 -11 -11 -10 -10 -10 -10 -10 -10 -10 -10 -10 -10 -10 -10 -10 -10 -10 -10 -10 -10 -10 -10
-10 -10 -9 -9 -10 -10 -10 -11 -11 -11 -10 -10 -10 -11 -11 -11 -11 -11 -11 -11 -11 -10 -10 -10 -10 -10 -11 -11 -11 -11 -11 -11 -11
-10 -10 -10 -10 -10 -10 -10 -11 -11 -11 -11 -10 -10 -11 -11 -11 -11 -11 -11 -11 -11 -11 -11 -11 -11 -11 -11 -11 -11 -11 -11 -11 -11
-10 -10 -10 -10 -10 -10 -10 -11 -11 -11 -11 -11 -11 -11 -11 -11 -11 -11 -11 -11 -11 -11 -11 -11 -11 -11 -11 -11 -11 -12 -12 -12 -12
-10 -10 -10 -10 -10 -10 -10 -10 -11 -11 -11 -11 -11 -11 -11 -11 -11 -11 -11 -11 -11 -11 -11 -11 -11 -12 -11 -12 -12 -12 -12 -12 -12
-10 -11 -11 -10 -10 -10 -10 -10 -11 -11 -11 -11 -11 -11 -11 -11 -11 -11 -11 -11 -11 -11 -12 -12 -12 -12 -12 -12 -12 -12 -12 -12 -12
-11 -11 -11 -11 -11 -11 -11 -11 -11 -11 -11 -12 -12 -12 -12 -12 -12 -12 -12 -12 -12 -12 -12 -12 -12 -12 -12 -12 -12 -13 -13 -12 -12
-11 -11 -11 -11 -11 -11 -11 -11 -11 -11 -12 -12 -12 -12 -12 -12 -12 -12 -12 -12 -12 -12 -12 -12 -13 -13 -13 -13 -13 -13 -13 -13 -13
-11 -12 -12 -12 -11 -11 -11 -11 -12 -12 -12 -12 -12 -12 -12 -13 -12 -12 -13 -13 -13 -13 -13 -13 -13 -13 -13 -13 -13 -13 -13 -13 -12
-12 -12 -12 -12 -12 -12 -12 -12 -12 -12 -12 -12 -12 -12 -13 -13 -13 -13 -13 -13 -13 -13 -13 -13 -13 -13 -13 -13 -13 -13 -13 -13 -13
-12 -12 -12 -12 -12 -12 -12 -12 -12 -12 -12 -12 -13 -13 -13 -13 -13 -13 -13 -13 -13 -13 -13 -13 -13 -13 -13 -13 -13 -13 -13 -13 -13
-12 -12 -12 -12 -12 -12 -12 -13 -13 -13 -13 -13 -13 -13 -13 -13 -13 -13 -13 -13 -13 -13 -13 -13 -13 -13 -13 -13 -14 -14 -14 -14 -14
Height
5871 5872 5873 5874 5875 5875 5874 5875 5875 5875 5875 5875 5875 5875 5874 5874 5874 5874 5874 5874 5874 5874 5873 5874 5874 5874 5874 5875 5875 5875 5874 5874 5873
5870 5870 5871 5872 5872 5873 5873 5873 5873 5874 5874 5874 5874 5874 5874 5874 5874 5874 5874 5874 5874 5874 5873 5874 5874 5874 5874 5874 5874 5873 5873 5873 5872
5867 5868 5869 5870 5870 5870 5871 5871 5872 5872 5873 5873 5873 5874 5873 5873 5873 5874 5874 5874 5873 5873 5873 5874 5874 5874 5874 5874 5873 5872 5872 5872 5871
5864 5865 5866 5867 5868 5869 5869 5869 5870 5870 5871 5872 5873 5873 5873 5873 5873 5873 5873 5873 5873 5873 5873 5873 5874 5874 5874 5873 5873 5872 5871 5870 5869
5862 5863 5863 5865 5866 5866 5867 5867 5868 5869 5869 5870 5870 5871 5872 5872 5872 5872 5872 5872 5872 5873 5873 5874 5874 5873 5872 5872 5871 5871 5870 5868 5867
5859 5860 5861 5862 5863 5864 5865 5865 5866 5866 5867 5868 5869 5870 5870 5871 5870 5871 5871 5871 5872 5872 5872 5872 5871 5871 5871 5870 5870 5869 5867 5866 5865
5856 5857 5858 5859 5860 5861 5862 5863 5864 5865 5865 5866 5867 5868 5868 5868 5869 5869 5870 5871 5871 5871 5870 5870 5870 5869 5869 5869 5867 5866 5864 5863 5862
5852 5853 5855 5856 5857 5858 5860 5861 5861 5862 5863 5863 5864 5865 5866 5866 5867 5868 5868 5868 5868 5868 5868 5868 5867 5867 5866 5865 5864 5863 5862 5861 5860
5849 5850 5850 5852 5853 5855 5856 5858 5859 5859 5860 5860 5861 5862 5863 5864 5864 5865 5865 5865 5865 5865 5865 5864 5864 5863 5862 5862 5861 5860 5859 5858 5856
5844 5846 5847 5849 5850 5851 5853 5854 5855 5856 5857 5858 5859 5859 5860 5861 5862 5862 5862 5862 5862 5861 5861 5860 5859 5859 5859 5858 5856 5855 5853 5851 5849
5840 5842 5842 5845 5846 5848 5849 5850 5851 5852 5854 5854 5855 5856 5857 5857 5858 5858 5859 5859 5858 5857 5857 5857 5856 5855 5855 5854 5852 5850 5849 5847 5844
5835 5837 5838 5840 5842 5844 5845 5846 5847 5847 5849 5850 5851 5852 5853 5854 5854 5855 5855 5854 5854 5854 5853 5852 5852 5851 5850 5848 5846 5844 5842 5840 5838
5830 5832 5833 5835 5837 5839 5840 5841 5843 5844 5845 5846 5846 5847 5849 5849 5850 5850 5850 5850 5849 5848 5848 5847 5847 5846 5845 5843 5840 5838 5836 5834 5831
5824 5827 5828 5830 5831 5833 5835 5836 5838 5838 5840 5841 5842 5842 5843 5843 5844 5844 5844 5844 5844 5844 5843 5842 5841 5840 5838 5836 5833 5831 5828 5825 5822
5817 5820 5822 5824 5825 5827 5828 5830 5832 5833 5834 5836 5836 5837 5837 5837 5838 5838 5838 5838 5838 5838 5836 5835 5834 5832 5830 5828 5825 5823 5820 5817 5814
5809 5812 5815 5817 5818 5819 5821 5823 5825 5828 5829 5829 5830 5829 5831 5832 5832 5831 5831 5831 5830 5829 5828 5826 5825 5823 5821 5818 5816 5814 5811 5808 5805
5800 5804 5806 5808 5810 5812 5814 5816 5818 5820 5820 5821 5821 5822 5824 5824 5823 5824 5823 5823 5822 5821 5819 5818 5816 5814 5812 5809 5806 5803 5800 5798 5794
5791 5794 5797 5799 5802 5805 5806 5809 5810 5811 5812 5814 5814 5816 5816 5816 5815 5815 5814 5813 5812 5811 5810 5809 5807 5804 5802 5799 5796 5793 5789 5786 5782
5782 5785 5788 5792 5794 5797 5799 5799 5801 5802 5804 5804 5807 5806 5807 5806 5807 5805 5804 5803 5802 5801 5800 5799 5797 5794 5791 5788 5784 5780 5777 5773 5769
5774 5776 5779 5782 5785 5786 5788 5790 5792 5792 5792 5794 5794 5795 5796 5796 5796 5795 5793 5792 5791 5790 5789 5787 5785 5783 5780 5778 5775 5771 5767 5762 5755
Wind_Speed
12 10 9 7 6 6 5 3 2 1 2 2 1 2 2 1 1 0 1 2 3 4 4 3 3 2 2 3 4 4 4 6 7
13 11 10 8 7 5 3 3 1 1 1 1 2 3 3 2 1 1 0 1 2 3 3 3 3 3 3 4 4 5 6 6 6
13 12 11 9 7 5 4 3 2 2 1 1 2 3 4 3 3 2 1 0 1 2 3 3 3 3 3 4 3 3 3 4 4
14 13 11 10 8 6 5 4 4 4 2 2 2 3 4 3 1 0 2 3 3 3 3 3 3 3 3 2 2 3 5 5 4
15 13 12 10 9 8 6 5 4 4 3 3 4 5 5 4 2 1 2 3 3 2 2 2 3 2 3 4 5 6 7 7 7
16 15 13 12 12 10 9 8 6 5 5 5 6 7 8 6 4 2 3 3 4 4 4 4 4 5 7 8 9 10 10 10 11
18 16 14 14 14 12 12 10 8 7 7 7 6 8 9 8 5 4 5 6 6 7 7 9 10 11 11 13 13 14 14 15 15
20 18 16 16 15 15 13 12 11 9 8 8 8 8 9 9 7 7 7 7 8 9 10 12 13 13 15 17 18 18 20 20 20
22 20 19 18 16 15 15 14 13 11 9 9 9 9 9 9 8 8 8 8 9 10 12 13 15 16 17 19 20 22 24 26 26
24 21 21 19 18 17 16 16 14 13 11 10 9 9 9 8 8 8 9 11 12 13 14 16 17 18 20 21 23 24 26 27 28
26 23 22 20 19 18 18 18 16 15 14 13 11 11 10 10 10 11 12 13 14 14 15 16 18 19 21 24 27 29 30 31 31
29 27 24 23 22 21 20 20 21 20 18 16 14 13 13 12 11 12 13 13 14 15 16 18 20 23 25 27 29 30 28 30 33
32 31 28 26 25 24 23 23 23 22 21 20 19 17 17 16 16 16 16 18 18 19 22 22 22 25 28 29 29 29 31 31 34
36 34 31 30 29 27 26 26 26 26 26 25 23 22 21 21 20 21 22 23 24 25 25 25 26 28 30 28 29 32 33 37 39
39 37 35 33 32 31 30 30 29 29 29 29 28 27 27 26 26 26 27 29 29 30 31 32 34 36 36 36 39 38 39 40 43
42 40 39 37 36 36 36 34 33 32 32 33 34 33 32 31 31 31 32 33 34 37 38 40 40 40 40 42 44 45 46 47 49
46 44 43 42 41 40 38 37 37 36 38 39 40 38 37 36 36 37 38 38 40 41 43 45 45 45 46 47 49 52 52 53 55
51 49 48 46 44 42 41 40 40 41 41 41 43 41 40 41 41 43 43 44 46 48 49 50 50 50 51 53 54 55 57 58 60
54 53 51 50 48 46 46 45 45 45 44 46 45 46 46 47 48 49 50 52 52 53 54 54 55 56 57 56 56 59 60 63 63
58 57 55 54 52 52 51 51 51 51 52 51 53 53 53 54 54 55 57 58 58 57 57 58 59 59 59 59 59 61 63 65 69
Wind_Direction
195 205 209 212 210 210 218 207 206 231 259 250 224 226 242 250 247 231 43 30 30 35 46 43 49 45 24 354 348 337 336 342 351
202 213 219 221 215 219 229 225 216 213 250 205 187 192 192 196 183 128 82 17 5 15 10 359 356 354 349 332 332 334 338 344 351
211 219 224 225 225 227 224 225 203 195 207 203 188 177 170 159 156 152 131 226 37 6 347 349 335 330 317 311 315 325 330 330 335
220 223 223 226 231 231 227 212 206 205 197 207 215 218 199 181 185 321 5 3 8 4 344 338 322 311 314 306 303 306 303 309 311
221 218 218 224 230 229 224 232 222 217 221 236 238 243 238 227 241 298 332 355 342 336 325 318 303 305 295 289 299 300 298 300 295
216 218 219 223 228 233 234 235 232 223 228 237 240 240 248 241 239 266 307 318 310 318 313 306 303 308 306 304 301 299 300 305 302
215 216 220 227 228 230 237 239 235 230 225 231 235 241 243 248 252 273 288 300 312 317 315 313 310 309 305 302 300 296 294 300 303
213 215 221 226 229 231 234 239 235 234 233 237 242 241 241 250 259 258 279 296 305 310 311 307 305 307 308 308 306 300 295 300 301
217 219 223 226 226 228 226 230 236 236 241 240 236 235 239 244 250 265 279 288 293 294 296 300 303 305 304 305 303 298 295 295 296
220 223 227 228 222 223 223 222 228 235 235 232 230 233 235 243 250 260 268 277 283 289 294 298 299 301 304 304 303 301 298 296 295
220 224 226 221 222 220 219 221 223 228 230 230 228 231 235 241 247 259 269 276 284 292 299 307 309 310 310 313 310 305 302 302 302
221 224 224 226 228 227 223 221 222 223 227 231 230 234 237 244 251 261 270 279 288 295 301 303 304 306 308 311 308 305 307 307 302
224 226 226 229 232 232 230 226 226 228 229 230 231 230 236 243 249 257 267 273 275 279 285 291 300 303 304 308 300 299 298 299 303
226 227 229 230 233 232 234 233 230 230 231 231 234 235 240 246 251 256 260 264 270 275 285 287 295 298 298 298 303 299 299 299 300
229 230 230 232 233 233 232 233 234 235 234 234 234 241 244 248 252 257 261 269 275 277 281 287 291 297 297 299 300 301 300 301 299
231 231 233 233 234 235 235 234 234 236 236 239 241 243 249 253 257 258 264 270 276 278 281 285 291 294 295 298 299 299 299 299 300
232 233 233 234 235 236 238 239 238 237 237 237 240 243 248 253 255 260 265 269 274 277 281 284 289 292 293 295 297 299 298 298 297
233 234 234 235 235 237 239 242 243 243 244 242 246 250 253 256 260 264 268 270 274 278 281 286 290 292 292 293 296 297 296 297 295
236 237 239 239 239 239 240 242 244 246 247 249 252 254 257 260 264 267 270 273 276 280 285 289 290 290 290 291 292 293 293 294 294
240 241 243 244 244 244 244 245 247 247 249 251 253 257 260 263 266 269 273 276 279 282 285 285 287 289 291 292 292 293 295 293 291